Regional Weather Roundup
Issued by NWS Northern Indiana

Home | Current Version | Previous Version | Text Only | Print | Product List | Glossary Off
Versions: 1 2 3 4 5 6 7 8 9 10 11 12 13 14 15 16 17 18 19 20 21 22 23 24 25 26 27 28 29 30 31 32 33 34 35 36 37 38 39 40 41 42 43 44 45 46 47 48 49 50

000
ASUS43 KIWX 251900
RWRIWX

KIWX WEATHER ROUNDUP
NATIONAL WEATHER SERVICE NORTHERN INDIANA
300 PM EDT SAT MAR 25 2017

NOTE: "FAIR" INDICATES FEW OR NO CLOUDS BELOW 12,000 FEET WITH NO
SIGNIFICANT WEATHER AND/OR OBSTRUCTIONS TO VISIBILITY.

* THESE STATIONS ARE NOT UNDER NWS QUALITY CONTROL. THEY ALSO MAY NOT
  REPORT WEATHER SUCH AS PRECIPITATION OR FOG.

INZ001>027-252000-
NORTHERN INDIANA

CITY           SKY/WX    TMP DP  RH WIND       PRES   REMARKS
GARY*          CLOUDY    48  46  93 CALM      29.99F FOG
SOUTH BEND     CLOUDY    58  51  78 E13       30.03F
ELKHART*       SUNNY     57  48  72 E14       30.04F
GOSHEN         MOSUNNY   66  51  58 E16       30.03F
MONTICELLO*    MOSUNNY   72  51  46 S10G25    29.96F
ANGOLA*        SUNNY     55  48  76 E13       30.08F
FORT WAYNE     CLOUDY    73  51  46 SW7       30.04F
PERU/GRISSOM   CLOUDY    73  53  49 S15       29.98F

$$
INZ028>050-252000-
CENTRAL INDIANA

CITY           SKY/WX    TMP DP  RH WIND       PRES   REMARKS
LAFAYETTE      PTSUNNY   71  53  52 S18G26    29.96F
KOKOMO*        CLOUDY    71  55  56 S13       30.00F
MUNCIE*        PTSUNNY   74  51  44 S17G26    30.01F
INDIANAPOLIS   CLOUDY    75  53  46 S13G24    29.97F

$$
MIZ043>046-050>051-056>058-064>065-071>073-077>080-252000-
SOUTHWEST LOWER MICHIGAN

CITY           SKY/WX    TMP DP  RH WIND       PRES   REMARKS
BATTLE CREEK   CLOUDY    43  41  93 E10G21    30.14R
BENTON HARBOR  PTSUNNY   50  46  86 E13G25    30.05F
COLDWATER*     CLOUDY    53  46  77 E13G18    30.10F
HILLSDALE*     CLOUDY    48  43  81 E15G26    30.12F HAZE
HOLLAND        LGT RAIN  43  39  86 E20G28    30.12S
GRAND RAPIDS   LGT RAIN  40  38  93 E15       30.15S
KALAMAZOO      CLOUDY    45  40  82 NE7       30.12F
STURGIS*       CLOUDY    57  48  72 NE15G21   30.06F
THREE RIVERS*  PTSUNNY   50  46  85 E12       30.09F

$$
OHZ001>008-015>018-024>025-252000-
NORTHWEST OHIO

CITY           SKY/WX    TMP DP  RH WIND       PRES   REMARKS
DEFIANCE       PTSUNNY   53  44  71 E16       30.11S
FINDLAY        CLOUDY    59  45  59 NE16      30.10F
TOLEDO EXPRESS CLOUDY    44  38  79 E22G31    30.15F
TOLEDO METCALF CLOUDY    42  38  85 NE17      30.18F
LIMA           CLOUDY    71  53  52 SW12      30.08F

$$
AND FOR LAKE MICHIGAN COASTAL AND OPEN LAKE BUOY OBSERVATIONS

STATION/POSITION TEMP    WIND        PRES    VSBY  WAVE
                 AIR SEA DIR/SP/G                  HT/PER
                 (F)     (DEG/KT/KT) (MB)    (MI)  (FT/S)
CALUMET HARBOR           330/  8/ 11 1015.5F
MICHIGAN CITY     60      70/ 11/ 13   N/A
BURNS HARBOR      41     310/  2/  3 1015.9F

$$
&&




USA.gov is the U.S. government's official web portal to all federal, state and local government web resources and services.